SAA67 KATL-FAOR

Flight info

Callsign SAA67
Flight time N/A
Altitude 33000
Route PHIIL3 HRTWL Q64 TYI DCT ORF AR9 ZIBUT/M081F330 DCT DARUX DCT ANVER DCT 3330N06000W 29N050W 23N040W/M081F350 DCT XIBOT/N0476F350 DCT XUVIT DCT 06N020W/N0477F370 02S010W 07S005W 11S000E 15S005E/N0465F390 DCT GUBAG DCT IBNEV UL435 ETOSA UZ10 PEDIL UQ19 AVAGO AVAGO1C
Aircraft A346/H-SDE2E3FGHIJ3J4J5M1RWXY/LB1D1

Departure

Time 2026-05-04 23:11
Airport Hartsfield Jackson Atlanta International Airport (KATL)

Arrival

Time N/A
Airport O.R. Tambo International Airport (FAOR)
Time Latitude Longitude Altitude Speed Heading
2026-05-04 22:38 33.64054 -84.42079 1014 ft 0 kts 90°
2026-05-04 22:57 33.64055 -84.42091 1014 ft 4 kts 94°
2026-05-04 22:57 33.64058 -84.42118 1014 ft 4 kts 109°
2026-05-04 22:57 33.64068 -84.42138 1014 ft 4 kts 143°
2026-05-04 22:57 33.64086 -84.42147 1014 ft 4 kts 176°
2026-05-04 22:58 33.64107 -84.42146 1016 ft 0 kts 182°
2026-05-04 23:01 33.64106 -84.42147 1016 ft 0 kts 182°
2026-05-04 23:01 33.64106 -84.42146 1016 ft 0 kts 182°
2026-05-04 23:01 33.64099 -84.42147 1016 ft 2 kts 182°
2026-05-04 23:01 33.64079 -84.42147 1014 ft 4 kts 179°
2026-05-04 23:02 33.64054 -84.42146 1014 ft 4 kts 179°
2026-05-04 23:02 33.64020 -84.42145 1014 ft 6 kts 179°
2026-05-04 23:02 33.63978 -84.42144 1014 ft 6 kts 179°
2026-05-04 23:02 33.63932 -84.42143 1014 ft 7 kts 180°
2026-05-04 23:03 33.63882 -84.42143 1014 ft 7 kts 180°
2026-05-04 23:03 33.63830 -84.42143 1014 ft 8 kts 180°
2026-05-04 23:03 33.63777 -84.42143 1015 ft 8 kts 181°
2026-05-04 23:03 33.63722 -84.42144 1015 ft 8 kts 180°
2026-05-04 23:04 33.63671 -84.42129 1015 ft 7 kts 143°
2026-05-04 23:04 33.63654 -84.42074 1015 ft 8 kts 89°
2026-05-04 23:04 33.63654 -84.42008 1015 ft 8 kts 90°
2026-05-04 23:04 33.63654 -84.41935 1014 ft 9 kts 89°
2026-05-04 23:05 33.63655 -84.41857 1014 ft 10 kts 89°
2026-05-04 23:05 33.63656 -84.41773 1014 ft 12 kts 89°
2026-05-04 23:05 33.63657 -84.41670 1014 ft 13 kts 89°
2026-05-04 23:05 33.63657 -84.41563 1014 ft 13 kts 90°
2026-05-04 23:06 33.63657 -84.41452 1014 ft 13 kts 90°
2026-05-04 23:06 33.63656 -84.41338 1014 ft 14 kts 90°
2026-05-04 23:06 33.63656 -84.41224 1014 ft 14 kts 90°
2026-05-04 23:06 33.63656 -84.41110 1014 ft 14 kts 90°
2026-05-04 23:07 33.63656 -84.40996 1014 ft 14 kts 90°
2026-05-04 23:07 33.63656 -84.40889 1014 ft 8 kts 90°
2026-05-04 23:07 33.63655 -84.40818 1015 ft 9 kts 94°
2026-05-04 23:07 33.63628 -84.40761 1015 ft 8 kts 146°
2026-05-04 23:08 33.63595 -84.40748 1015 ft 0 kts 172°
2026-05-04 23:08 33.63592 -84.40747 1015 ft 1 kts 172°
2026-05-04 23:08 33.63582 -84.40746 1015 ft 2 kts 172°
2026-05-04 23:08 33.63562 -84.40743 1015 ft 3 kts 176°
2026-05-04 23:09 33.63534 -84.40744 1015 ft 5 kts 186°
2026-05-04 23:09 33.63500 -84.40756 1015 ft 5 kts 218°
2026-05-04 23:09 33.63479 -84.40794 1015 ft 6 kts 252°
2026-05-04 23:09 33.63470 -84.40932 1015 ft 42 kts 269°
2026-05-04 23:10 33.63471 -84.41561 1013 ft 104 kts 270°
2026-05-04 23:10 33.63472 -84.42639 1014 ft 156 kts 270°
2026-05-04 23:10 33.63466 -84.44126 1018 ft 199 kts 269°
2026-05-04 23:10 33.63472 -84.45892 1262 ft 220 kts 271°
2026-05-04 23:11 33.63399 -84.47761 1837 ft 225 kts 249°
2026-05-04 23:11 33.62756 -84.49421 2792 ft 216 kts 240°
2026-05-04 23:11 33.62002 -84.50964 3454 ft 214 kts 238°
2026-05-04 23:11 33.61262 -84.52540 3865 ft 220 kts 240°
2026-05-04 23:12 33.60562 -84.54191 4290 ft 224 kts 242°
2026-05-04 23:12 33.59896 -84.55887 4784 ft 225 kts 244°
2026-05-04 23:12 33.59188 -84.57567 5268 ft 226 kts 228°
2026-05-04 23:12 33.57905 -84.58596 5688 ft 227 kts 188°
2026-05-04 23:13 33.56310 -84.58641 6047 ft 236 kts 178°
2026-05-04 23:13 33.54624 -84.58552 6303 ft 249 kts 179°
2026-05-04 23:13 33.52849 -84.58502 6564 ft 262 kts 180°
2026-05-04 23:13 33.50979 -84.58478 6851 ft 274 kts 180°
2026-05-04 23:14 33.49044 -84.58418 7291 ft 281 kts 172°
2026-05-04 23:14 33.47237 -84.57533 7757 ft 286 kts 141°
2026-05-04 23:14 33.45994 -84.55682 8288 ft 290 kts 113°
2026-05-04 23:14 33.45599 -84.53302 8770 ft 296 kts 91°
2026-05-04 23:15 33.45618 -84.50825 9268 ft 299 kts 91°
2026-05-04 23:15 33.45633 -84.48319 9749 ft 302 kts 91°
2026-05-04 23:15 33.45634 -84.45783 10206 ft 306 kts 91°
2026-05-04 23:15 33.45626 -84.43218 10681 ft 309 kts 91°
2026-05-04 23:16 33.45613 -84.40633 11143 ft 312 kts 91°
2026-05-04 23:16 33.45598 -84.38017 11594 ft 315 kts 91°
2026-05-04 23:16 33.45612 -84.35378 12038 ft 319 kts 87°
2026-05-04 23:16 33.45750 -84.33616 12325 ft 321 kts 82°
2026-05-04 23:17 33.46415 -84.30108 12934 ft 325 kts 73°
2026-05-04 23:17 33.46847 -84.28381 13220 ft 327 kts 73°
2026-05-04 23:17 33.47529 -84.25749 13536 ft 335 kts 72°
2026-05-04 23:17 33.48232 -84.23035 13741 ft 346 kts 72°
2026-05-04 23:18 33.48957 -84.20215 13949 ft 358 kts 72°
2026-05-04 23:18 33.49696 -84.17318 14143 ft 368 kts 72°
2026-05-04 23:18 33.50454 -84.14335 14348 ft 379 kts 72°
2026-05-04 23:18 33.51231 -84.11264 14594 ft 388 kts 72°
2026-05-04 23:19 33.52017 -84.08149 15017 ft 392 kts 72°
2026-05-04 23:19 33.52807 -84.05012 15496 ft 394 kts 72°
2026-05-04 23:19 33.53603 -84.01853 15940 ft 396 kts 72°
2026-05-04 23:19 33.54400 -83.98683 16380 ft 399 kts 72°
2026-05-04 23:20 33.55204 -83.95482 16804 ft 401 kts 72°
2026-05-04 23:20 33.56012 -83.92261 17215 ft 404 kts 72°
2026-05-04 23:20 33.56825 -83.89016 17621 ft 407 kts 72°
2026-05-04 23:20 33.57645 -83.85751 18007 ft 410 kts 71°
2026-05-04 23:21 33.58571 -83.82508 18415 ft 412 kts 67°
2026-05-04 23:21 33.59672 -83.79326 18791 ft 414 kts 64°
2026-05-04 23:21 33.60868 -83.76170 19156 ft 417 kts 63°
2026-05-04 23:21 33.62087 -83.72995 19510 ft 420 kts 63°
2026-05-04 23:22 33.63310 -83.69798 19857 ft 423 kts 63°
2026-05-04 23:22 33.64515 -83.66560 20203 ft 426 kts 66°
2026-05-04 23:22 33.65553 -83.63208 20546 ft 430 kts 70°
2026-05-04 23:22 33.66385 -83.59735 20882 ft 434 kts 75°
2026-05-04 23:23 33.67069 -83.56191 21215 ft 437 kts 76°
2026-05-04 23:23 33.67729 -83.52616 21550 ft 439 kts 76°
2026-05-04 23:23 33.68388 -83.49020 21877 ft 442 kts 76°
2026-05-04 23:23 33.69056 -83.45400 22185 ft 445 kts 76°
2026-05-04 23:24 33.69732 -83.41761 22499 ft 447 kts 76°
2026-05-04 23:24 33.70411 -83.38101 22802 ft 450 kts 76°
2026-05-04 23:24 33.71096 -83.34415 23084 ft 453 kts 76°
2026-05-04 23:24 33.71785 -83.30710 23375 ft 456 kts 76°
2026-05-04 23:25 33.72477 -83.26981 23658 ft 458 kts 76°
2026-05-04 23:25 33.73171 -83.23226 23947 ft 460 kts 76°
2026-05-04 23:25 33.73867 -83.19460 24240 ft 463 kts 75°
2026-05-04 23:25 33.74759 -83.15712 24515 ft 463 kts 68°
2026-05-04 23:26 33.76008 -83.12141 24780 ft 463 kts 60°
2026-05-04 23:26 33.77591 -83.08764 25038 ft 464 kts 55°
2026-05-04 23:26 33.79296 -83.05475 25437 ft 461 kts 54°
2026-05-04 23:26 33.80994 -83.02252 26111 ft 451 kts 54°
2026-05-04 23:27 33.82650 -82.99095 26781 ft 442 kts 54°
2026-05-04 23:27 33.84291 -82.95953 27037 ft 445 kts 54°
2026-05-04 23:27 33.85945 -82.92771 27143 ft 450 kts 54°
2026-05-04 23:27 33.87608 -82.89558 27306 ft 454 kts 54°
2026-05-04 23:28 33.89280 -82.86319 27535 ft 455 kts 54°
2026-05-04 23:28 33.90952 -82.83071 27768 ft 457 kts 54°
2026-05-04 23:28 33.92629 -82.79810 27986 ft 459 kts 54°
2026-05-04 23:28 33.94311 -82.76536 28205 ft 460 kts 54°
2026-05-04 23:29 33.96000 -82.73245 28406 ft 462 kts 54°
2026-05-04 23:29 33.97693 -82.69942 28617 ft 464 kts 54°
2026-05-04 23:29 33.99390 -82.66622 28818 ft 465 kts 55°
2026-05-04 23:29 34.01080 -82.63287 29017 ft 467 kts 55°
2026-05-04 23:30 34.02749 -82.59978 29219 ft 469 kts 55°
2026-05-04 23:30 34.04448 -82.56610 29425 ft 470 kts 55°
2026-05-04 23:30 34.06150 -82.53238 29622 ft 471 kts 55°
2026-05-04 23:30 34.07856 -82.49855 29805 ft 472 kts 55°
2026-05-04 23:31 34.09569 -82.46456 29980 ft 474 kts 55°
2026-05-04 23:31 34.11286 -82.43048 30152 ft 476 kts 55°
2026-05-04 23:31 34.13010 -82.39621 30337 ft 477 kts 55°
2026-05-04 23:31 34.14734 -82.36192 30515 ft 478 kts 55°
2026-05-04 23:32 34.16465 -82.32747 30695 ft 479 kts 55°
2026-05-04 23:32 34.18195 -82.29300 30865 ft 480 kts 55°
2026-05-04 23:32 34.19931 -82.25839 31053 ft 481 kts 55°
2026-05-04 23:32 34.21668 -82.22370 31208 ft 483 kts 55°
2026-05-04 23:33 34.23409 -82.18888 31367 ft 484 kts 55°
2026-05-04 23:33 34.25152 -82.15400 31531 ft 485 kts 55°
2026-05-04 23:33 34.26904 -82.11906 31694 ft 486 kts 55°
2026-05-04 23:33 34.28669 -82.08399 31774 ft 489 kts 55°
2026-05-04 23:34 34.32235 -82.01318 31903 ft 496 kts 55°
2026-05-04 23:34 34.35838 -81.94143 32036 ft 502 kts 55°
2026-05-04 23:35 34.39487 -81.86860 32161 ft 508 kts 56°
2026-05-04 23:35 34.43177 -81.79478 32281 ft 515 kts 56°
2026-05-04 23:36 34.46908 -81.71999 32427 ft 520 kts 56°
2026-05-04 23:36 34.48780 -81.68238 32564 ft 521 kts 56°
2026-05-04 23:36 34.50658 -81.64465 32701 ft 522 kts 56°
2026-05-04 23:37 34.52538 -81.60684 32852 ft 523 kts 56°
2026-05-04 23:37 34.54418 -81.56895 32968 ft 524 kts 56°
2026-05-04 23:37 34.58112 -81.49434 33042 ft 507 kts 56°
2026-05-04 23:38 34.61743 -81.42097 33056 ft 507 kts 56°
2026-05-04 23:38 34.65374 -81.34748 33052 ft 507 kts 56°
2026-05-04 23:39 34.69003 -81.27385 33049 ft 507 kts 56°
2026-05-04 23:39 34.72628 -81.20016 33040 ft 507 kts 56°
2026-05-04 23:40 34.76249 -81.12639 33037 ft 507 kts 56°
2026-05-04 23:40 34.79770 -81.05189 33037 ft 509 kts 60°
2026-05-04 23:41 34.82778 -80.97361 33037 ft 512 kts 63°
2026-05-04 23:41 34.85701 -80.89376 33035 ft 520 kts 63°
2026-05-04 23:42 34.88675 -80.81258 33032 ft 528 kts 63°
2026-05-04 23:42 34.91680 -80.73059 33023 ft 530 kts 63°
2026-05-04 23:43 34.94655 -80.64930 33011 ft 512 kts 63°
2026-05-04 23:43 34.96083 -80.61013 33011 ft 498 kts 63°
2026-05-04 23:43 34.97484 -80.57174 33016 ft 494 kts 63°
2026-05-04 23:44 35.00287 -80.49493 33084 ft 495 kts 63°
2026-05-04 23:44 35.01689 -80.45645 33235 ft 496 kts 63°
2026-05-04 23:44 35.03089 -80.41795 33378 ft 496 kts 63°
2026-05-04 23:45 35.04489 -80.37937 33505 ft 497 kts 63°
2026-05-04 23:45 35.05891 -80.34070 33611 ft 498 kts 63°
2026-05-04 23:45 35.07099 -80.30087 33689 ft 502 kts 74°
2026-05-04 23:45 35.07716 -80.25883 33807 ft 504 kts 83°
2026-05-04 23:46 35.08030 -80.21610 33937 ft 505 kts 85°
2026-05-04 23:46 35.08288 -80.17322 34017 ft 506 kts 85°
2026-05-04 23:46 35.08817 -80.08773 34146 ft 510 kts 85°
2026-05-04 23:47 35.09399 -80.00082 34216 ft 515 kts 84°
2026-05-04 23:47 35.10006 -79.91307 34264 ft 521 kts 85°
2026-05-04 23:48 35.10614 -79.82476 34584 ft 519 kts 85°
2026-05-04 23:48 35.10916 -79.78078 34776 ft 518 kts 85°
2026-05-04 23:48 35.11216 -79.73674 34916 ft 518 kts 85°
2026-05-04 23:49 35.11810 -79.64893 35019 ft 519 kts 85°
2026-05-04 23:49 35.12392 -79.56098 35008 ft 519 kts 87°
2026-05-04 23:50 35.11985 -79.47316 35017 ft 518 kts 97°
2026-05-04 23:50 35.11193 -79.38557 35015 ft 518 kts 97°
2026-05-04 23:51 35.10436 -79.29787 35020 ft 519 kts 97°
2026-05-04 23:51 35.09711 -79.21004 35018 ft 519 kts 97°
2026-05-04 23:52 35.08992 -79.12225 35018 ft 519 kts 97°
2026-05-04 23:52 35.08270 -79.03442 35018 ft 519 kts 97°
2026-05-04 23:53 35.07544 -78.94669 35012 ft 519 kts 97°
2026-05-04 23:53 35.06810 -78.85894 35015 ft 519 kts 97°
2026-05-04 23:54 35.06069 -78.77111 35014 ft 520 kts 97°
2026-05-04 23:54 35.05323 -78.68342 35021 ft 525 kts 97°
2026-05-04 23:55 35.04556 -78.59409 35027 ft 530 kts 97°